KUIPER-00122

导读

KUIPER-00122是美国亚马逊公司“柯伊伯计划”(Project Kuiper)星座中的一颗量产低轨卫星。该卫星于北京时间2025年10月14日成功发射,旨在为全球提供低时延高速卫星宽带互联网接入服务,补充覆盖地面网络未通达地区,助力填补全球数字鸿沟,是亚马逊构建近地轨道3236颗卫星互联网星座的重要组成部分。

Basic Information
目录编号:
65951
目录名称:
KUIPER-00122
国际标识:
2025-228E
轨道中心:
EARTH
卫星名称:
KUIPER-00122
卫星全名:
KUIPER-00122
卫星状态:
在轨 (已飞行333 天)
发射日期:
2025-10-14 UTC
国别 :
美国 (US)
星等 :
--
This satellite is enrolled in the Space Conjunction Data Service (SCDS) and the current flight risk assessment level is: No High Risk
Orbit Information
数据来源 国际轨道数据 AOE轨道数据
星历时间 2026-09-11T08:40:43+0800
1天前
查看轨道信息
2026-09-10T06:00:00+0800
2天前
查看轨道信息
半长轴 7007.682km 7007.702km
偏心率 0.0000832 0.0000741
轨道倾角 51.898° 51.898°
近地点辐角 65.848° 82.941°
升交点赤经 263.487° 268.402°
平近点角 294.257° 111.193°
近地点 628.961km 629.045km
远地点 630.129km 630.085km
周期 97.302分钟 97.302分钟
每日圈数 14.799302 14.79924
Detailed Information
使用方式:
暂无
2D Orbit Map
3D Orbit Map
Orbit Altitude Analysis Chart
Orbit Inclination Analysis Chart
Orbit Comprehensive Analysis Chart
View Comprehensive Chart
Miss Distance Evolution Trend with All Objects
Collision Probability Evolution Trend with All Objects